Philadelphia Wings Airport, PA

3:14 PM EDT on October 18, 2019 (GMT -0400)
Philadelphia Wings Airport

Weather History for KLOM - August, 2019

Change the Weather History Date:

Thursday, August 29, 2019

  Actual Average (KPNE) Record (KPNE)
Temperature  
Mean Temperature 68 °F -  
Max Temperature 80 °F 80 °F 97 °F (2018)
Min Temperature 57 °F 62 °F 57 °F (2011)
Cooling Degree Days 4    
Growing Degree Days 18 (Base 50)    
Moisture  
Dew Point 57 °F    
Average Humidity 70    
Maximum Humidity 99    
Minimum Humidity 41    
Precipitation  
Precipitation 0.00 in - - ()
Sea Level Pressure  
Sea Level Pressure 29.95 in    
Wind  
Wind Speed 4 mph (WNW)    
Max Wind Speed 13 mph    
Max Gust Speed 21 mph    
Visibility 10 miles    
Events      
Averages and records for this station are not official NWS values.
T = Trace of Precipitation, MM = Missing Value Source: NWS Daily Summary

Daily Weather History Graph

Daily Weather History Graph

Search for Another Location

Airport or City:

Astronomy

Aug. 29, 2019 Rise Set
Actual Time 6:25 AM EDT 7:37 PM EDT
Civil Twilight 5:57 AM EDT 8:05 PM EDT
Nautical Twilight 5:24 AM EDT 8:39 PM EDT
Astronomical Twilight 4:48 AM EDT 9:14 PM EDT
Moon 5:07 AM EDT (8/29) 7:32 PM EDT (8/29)
Length of Visible Light 14h 08m
Length of Day
13h 12m
Waning Crescent, 1% of the Moon is Illuminated
Aug 29
Waning Crescent
Aug 30
New
Sep 5
First Quarter
Sep 14
Full
Sep 21
Last Quarter

Hourly Weather History & Observations

Time (EDT) Temp. Heat Index Dew Point Humidity Pressure Visibility Wind Dir Wind Speed Gust Speed Precip Events Conditions
12:15 AM 66.6 °F - 62.8 °F 88% 29.87 in 10.0 mi WNW 4.6 mph - N/A   Mostly Cloudy
12:35 AM 66.0 °F - 62.1 °F 87% 29.87 in 10.0 mi NW 3.5 mph - N/A   Scattered Clouds
12:55 AM 64.9 °F - 61.9 °F 90% 29.87 in 10.0 mi NW 3.5 mph - N/A   Clear
1:15 AM 64.0 °F - 61.7 °F 92% 29.87 in 10.0 mi Calm Calm - N/A   Clear
3:15 AM 61.9 °F - 59.9 °F 93% 29.88 in 10.0 mi Calm Calm - N/A   Clear
3:35 AM 62.4 °F - 59.5 °F 90% 29.89 in 10.0 mi Calm Calm - N/A   Clear
3:55 AM 61.9 °F - 59.5 °F 92% 29.89 in 10.0 mi West 3.5 mph - N/A   Clear
4:35 AM 61.2 °F - 59.2 °F 93% 29.90 in 10.0 mi WNW 3.5 mph - N/A   Clear
4:55 AM 61.7 °F - 59.4 °F 92% 29.90 in 10.0 mi WNW 4.6 mph - N/A   Clear
5:15 AM 61.2 °F - 59.4 °F 94% 29.90 in 10.0 mi WNW 3.5 mph - N/A   Clear
5:35 AM 59.7 °F - 58.8 °F 97% 29.90 in 10.0 mi Calm Calm - N/A   Clear
5:55 AM 59.5 °F - 58.8 °F 97% 29.90 in 10.0 mi Calm Calm - N/A   Clear
6:15 AM 58.3 °F - 57.7 °F 98% 29.91 in 10.0 mi Calm Calm - N/A   Clear
6:35 AM 58.3 °F - 58.1 °F 99% 29.91 in 10.0 mi WNW 3.5 mph - N/A   Clear
6:55 AM 59.0 °F - 58.8 °F 99% 29.92 in 10.0 mi WNW 3.5 mph - N/A   Clear
7:15 AM 62.1 °F - 60.6 °F 95% 29.92 in 10.0 mi WNW 3.5 mph - N/A   Clear
7:35 AM 64.0 °F - 61.0 °F 90% 29.92 in 10.0 mi WNW 4.6 mph - N/A   Clear
7:55 AM 65.3 °F - 60.8 °F 85% 29.92 in 10.0 mi WNW 4.6 mph - N/A   Clear
8:15 AM 66.9 °F - 60.3 °F 79% 29.92 in 10.0 mi West 4.6 mph - N/A   Clear
8:35 AM 68.4 °F - 59.5 °F 73% 29.92 in 10.0 mi WNW 5.8 mph - N/A   Clear
8:55 AM 69.4 °F - 59.0 °F 69% 29.93 in 10.0 mi WNW 6.9 mph - N/A   Clear
9:15 AM 70.5 °F - 59.2 °F 67% 29.94 in 10.0 mi NW 8.1 mph - N/A   Clear
9:35 AM 71.6 °F - 59.2 °F 65% 29.95 in 10.0 mi NW 5.8 mph - N/A   Clear
9:55 AM 72.5 °F - 59.2 °F 63% 29.95 in 10.0 mi NW 6.9 mph - N/A   Clear
10:15 AM 74.1 °F - 59.9 °F 61% 29.96 in 10.0 mi WNW 8.1 mph - N/A   Clear
10:35 AM 75.2 °F - 59.2 °F 57% 29.97 in 10.0 mi NW 11.5 mph - N/A   Clear
10:55 AM 75.9 °F - 57.4 °F 52% 29.97 in 10.0 mi NW 8.1 mph - N/A   Clear
11:15 AM 76.6 °F - 56.1 °F 49% 29.97 in 10.0 mi NW 8.1 mph - N/A   Clear
11:35 AM 76.6 °F - 55.2 °F 47% 29.97 in 10.0 mi NNW 11.5 mph - N/A   Clear
11:55 AM 77.4 °F - 56.5 °F 48% 29.97 in 10.0 mi NNW 12.7 mph - N/A   Clear
12:15 PM 77.7 °F - 56.7 °F 48% 29.97 in 10.0 mi NNW 6.9 mph - N/A   Clear
12:35 PM 78.1 °F - 57.2 °F 49% 29.96 in 10.0 mi NNW 4.6 mph - N/A   Clear
12:55 PM 78.3 °F - 57.2 °F 48% 29.96 in 10.0 mi West 8.1 mph - N/A   Clear
1:15 PM 78.1 °F - 57.4 °F 49% 29.96 in 10.0 mi NW 8.1 mph - N/A   Scattered Clouds
1:35 PM 79.3 °F - 57.9 °F 48% 29.96 in 10.0 mi NNW 9.2 mph - N/A   Scattered Clouds
1:55 PM 79.5 °F - 57.2 °F 46% 29.95 in 10.0 mi West 9.2 mph 17.3 mph N/A   Scattered Clouds
2:15 PM 79.7 °F - 54.5 °F 42% 29.95 in 10.0 mi WNW 10.4 mph 19.6 mph N/A   Scattered Clouds
2:35 PM 80.2 °F 80.3 °F 55.4 °F 42% 29.95 in 10.0 mi NW 8.1 mph - N/A   Clear
2:55 PM 79.5 °F - 55.0 °F 43% 29.95 in 10.0 mi WNW 10.4 mph - N/A   Clear
3:15 PM 79.3 °F - 53.4 °F 41% 29.94 in 10.0 mi West 9.2 mph 20.7 mph N/A   Clear
3:35 PM 79.0 °F - 54.1 °F 42% 29.94 in 10.0 mi West 9.2 mph 19.6 mph N/A   Clear
3:55 PM 80.1 °F 80.2 °F 55.9 °F 43% 29.94 in 10.0 mi WNW 9.2 mph - N/A   Scattered Clouds
4:15 PM 79.3 °F - 54.1 °F 42% 29.94 in 10.0 mi WNW 8.1 mph 20.7 mph N/A   Clear
4:35 PM 79.3 °F - 54.0 °F 41% 29.94 in 10.0 mi West 8.1 mph - N/A   Clear
4:55 PM 79.2 °F - 54.1 °F 42% 29.95 in 10.0 mi NW 4.6 mph 18.4 mph N/A   Clear
5:15 PM 78.4 °F - 52.9 °F 41% 29.94 in 10.0 mi NW 10.4 mph - N/A   Clear
5:35 PM 78.3 °F - 53.2 °F 42% 29.95 in 10.0 mi West 5.8 mph - N/A   Clear
5:55 PM 77.7 °F - 52.3 °F 41% 29.95 in 10.0 mi WNW 10.4 mph - N/A   Clear
6:15 PM 77.4 °F - 52.3 °F 42% 29.96 in 10.0 mi NW 8.1 mph 17.3 mph N/A   Clear
6:35 PM 76.5 °F - 52.5 °F 43% 29.96 in 10.0 mi NNW 4.6 mph - N/A   Clear
6:55 PM 75.7 °F - 53.1 °F 45% 29.97 in 10.0 mi NW 4.6 mph - N/A   Clear
7:15 PM 74.3 °F - 53.4 °F 48% 29.97 in 10.0 mi WNW 3.5 mph - N/A   Clear
7:35 PM 71.2 °F - 55.4 °F 57% 29.98 in 10.0 mi Calm Calm - N/A   Clear
7:55 PM 64.6 °F - 60.1 °F 85% 29.99 in 10.0 mi Calm Calm - N/A   Clear
8:15 PM 62.6 °F - 59.9 °F 91% 30.00 in 10.0 mi Calm Calm - N/A   Clear
8:35 PM 61.9 °F - 59.5 °F 92% 30.01 in 10.0 mi Calm Calm - N/A   Clear
8:55 PM 60.8 °F - 58.8 °F 93% 30.01 in 10.0 mi Calm Calm - N/A   Clear
9:15 PM 60.6 °F - 58.5 °F 93% 30.02 in 10.0 mi Calm Calm - N/A   Clear
9:35 PM 59.7 °F - 58.5 °F 96% 30.02 in 10.0 mi Calm Calm - N/A   Clear
9:55 PM 59.0 °F - 57.9 °F 96% 30.02 in 10.0 mi Calm Calm - N/A   Clear
10:15 PM 58.5 °F - 56.7 °F 94% 30.03 in 10.0 mi Calm Calm - N/A   Clear
10:35 PM 57.9 °F - 56.8 °F 96% 30.03 in 10.0 mi Calm Calm - N/A   Clear
10:55 PM 57.9 °F - 57.0 °F 97% 30.03 in 10.0 mi Calm Calm - N/A   Clear
11:15 PM 57.6 °F - 57.0 °F 98% 30.03 in 10.0 mi Calm Calm - N/A   Clear
11:35 PM 57.2 °F - 55.8 °F 95% 30.03 in 10.0 mi Calm Calm - N/A   Clear
11:55 PM 57.4 °F - 56.3 °F 96% 30.03 in 10.0 mi Calm Calm - N/A   Clear